Location: Sungai Jaoh
(2.9167°N, 113.9167°E)
Time: 05:40:42
(UTC+00:00)

Envisat - Pass Details

Date: 26 September 2021
Orbit: 764 x 766 km, 98.2° (Epoch: 23 October)

Event Time Altitude Azimuth Distance (km) Brightness Sun altitude
Rises 20:14:43 0° 41° (NE) 3,215 6.8 -30.2°
Reaches altitude 10° 20:17:45 10° 60° (ENE) 2,292 6.2 -29.5°
Maximum altitude 20:21:04 18° 102° (ESE) 1,818 5.7 -28.6°
Drops below altitude 10° 20:24:23 10° 143° (SE) 2,296 5.9 -27.8°
Sets 20:27:24 0° 162° (SSE) 3,224 6.5 -27.1°
